AFR2604 GMTT-LFMP

Flight info

Callsign AFR2604
Flight time 1h 38m
Altitude 38000
Route BARPA M985 PIMOS M445 SOPET M985 BCN N870 DALIN L16 BGR N855 KANIG
Aircraft A320/M-SDE3FGHIRWY/LB1

Departure

Time 2026-04-26 19:03
Airport Tangier Ibn Battuta Airport (GMTT)

Arrival

Time 2026-04-26 20:41
Airport Perpignan-Rivesaltes (Llabanère) Airport (LFMP)
Time Latitude Longitude Altitude Speed Heading
2026-04-26 18:13 35.72539 -5.91275 65 ft 0 kts 356°
2026-04-26 18:37 35.72529 -5.91274 65 ft 3 kts 357°
2026-04-26 18:37 35.72508 -5.91273 63 ft 3 kts 358°
2026-04-26 18:38 35.72488 -5.91272 59 ft 3 kts 349°
2026-04-26 18:38 35.72479 -5.91269 59 ft 3 kts 346°
2026-04-26 18:39 35.72476 -5.91268 59 ft 3 kts 347°
2026-04-26 18:39 35.72457 -5.91263 56 ft 3 kts 348°
2026-04-26 18:39 35.72437 -5.91257 56 ft 3 kts 344°
2026-04-26 18:40 35.72425 -5.91253 64 ft 1 kts 341°
2026-04-26 18:40 35.72422 -5.91252 64 ft 0 kts 341°
2026-04-26 18:54 35.72429 -5.91255 60 ft 7 kts 341°
2026-04-26 18:54 35.72467 -5.91317 65 ft 10 kts 274°
2026-04-26 18:54 35.72456 -5.91399 64 ft 10 kts 251°
2026-04-26 18:55 35.72428 -5.91488 60 ft 12 kts 261°
2026-04-26 18:55 35.72432 -5.91593 59 ft 13 kts 286°
2026-04-26 18:55 35.72489 -5.91674 56 ft 13 kts 330°
2026-04-26 18:55 35.72572 -5.91694 60 ft 12 kts 355°
2026-04-26 18:56 35.72658 -5.91700 60 ft 13 kts 358°
2026-04-26 18:56 35.72756 -5.91708 60 ft 15 kts 353°
2026-04-26 18:56 35.72868 -5.91720 59 ft 11 kts 356°
2026-04-26 18:56 35.72889 -5.91721 59 ft 2 kts 356°
2026-04-26 18:57 35.72904 -5.91722 59 ft 2 kts 357°
2026-04-26 18:57 35.72919 -5.91723 59 ft 5 kts 356°
2026-04-26 18:57 35.72957 -5.91815 58 ft 15 kts 278°
2026-04-26 18:57 35.72970 -5.91972 56 ft 22 kts 274°
2026-04-26 18:58 35.72991 -5.92175 53 ft 24 kts 277°
2026-04-26 18:58 35.73010 -5.92381 51 ft 24 kts 276°
2026-04-26 18:58 35.73029 -5.92586 48 ft 24 kts 276°
2026-04-26 18:58 35.73048 -5.92787 46 ft 24 kts 277°
2026-04-26 18:59 35.73069 -5.92987 43 ft 23 kts 277°
2026-04-26 18:59 35.73082 -5.93187 41 ft 23 kts 272°
2026-04-26 18:59 35.73106 -5.93382 38 ft 23 kts 279°
2026-04-26 18:59 35.73123 -5.93578 36 ft 23 kts 276°
2026-04-26 19:00 35.73141 -5.93773 33 ft 23 kts 276°
2026-04-26 19:00 35.73159 -5.93958 31 ft 20 kts 276°
2026-04-26 19:00 35.73238 -5.94054 30 ft 3 kts 359°
2026-04-26 19:01 35.73284 -5.94044 30 ft 15 kts 25°
2026-04-26 19:01 35.73334 -5.93931 33 ft 16 kts 101°
2026-04-26 19:02 35.73317 -5.93789 32 ft 26 kts 95°
2026-04-26 19:02 35.73276 -5.93263 38 ft 95 kts 95°
2026-04-26 19:02 35.73176 -5.92238 53 ft 146 kts 95°
2026-04-26 19:02 35.73111 -5.91325 133 ft 165 kts 95°
2026-04-26 19:03 35.73014 -5.89577 1260 ft 151 kts 97°
2026-04-26 19:03 35.72918 -5.88281 2005 ft 156 kts 97°
2026-04-26 19:03 35.72771 -5.86858 2441 ft 179 kts 98°
2026-04-26 19:03 35.72604 -5.85250 2689 ft 202 kts 97°
2026-04-26 19:04 35.72420 -5.83424 3119 ft 228 kts 97°
2026-04-26 19:04 35.72300 -5.81412 3826 ft 243 kts 86°
2026-04-26 19:04 35.72934 -5.79465 4620 ft 260 kts 53°
2026-04-26 19:04 35.74212 -5.77795 5492 ft 269 kts 47°
2026-04-26 19:05 35.76916 -5.74510 7229 ft 281 kts 46°
2026-04-26 19:05 35.78321 -5.72805 8106 ft 285 kts 46°
2026-04-26 19:05 35.79738 -5.71081 8993 ft 289 kts 46°
2026-04-26 19:06 35.81176 -5.69323 9871 ft 294 kts 46°
2026-04-26 19:06 35.82621 -5.67467 10404 ft 311 kts 51°
2026-04-26 19:06 35.83910 -5.65213 10694 ft 333 kts 61°
2026-04-26 19:06 35.85000 -5.62572 10923 ft 357 kts 65°
2026-04-26 19:07 35.86097 -5.59832 11373 ft 371 kts 65°
2026-04-26 19:07 35.87258 -5.56953 12029 ft 378 kts 64°
2026-04-26 19:07 35.88440 -5.54035 12724 ft 383 kts 64°
2026-04-26 19:07 35.89639 -5.51078 13423 ft 388 kts 64°
2026-04-26 19:08 35.90855 -5.48074 14085 ft 393 kts 64°
2026-04-26 19:08 35.92082 -5.45039 14729 ft 397 kts 64°
2026-04-26 19:08 35.93313 -5.41987 15396 ft 399 kts 64°
2026-04-26 19:08 35.94553 -5.38913 16065 ft 402 kts 64°
2026-04-26 19:09 35.95804 -5.35807 16739 ft 405 kts 64°
2026-04-26 19:09 35.97056 -5.32691 17403 ft 408 kts 64°
2026-04-26 19:09 35.98301 -5.29584 18059 ft 410 kts 64°
2026-04-26 19:09 35.99574 -5.26408 18656 ft 414 kts 64°
2026-04-26 19:10 36.00855 -5.23217 19194 ft 417 kts 63°
2026-04-26 19:10 36.02172 -5.20016 19729 ft 419 kts 63°
2026-04-26 19:10 36.03521 -5.16808 20247 ft 422 kts 62°
2026-04-26 19:10 36.04891 -5.13581 20775 ft 425 kts 62°
2026-04-26 19:11 36.06266 -5.10339 21269 ft 428 kts 62°
2026-04-26 19:11 36.07644 -5.07079 21750 ft 431 kts 62°
2026-04-26 19:11 36.09033 -5.03777 22217 ft 434 kts 62°
2026-04-26 19:11 36.10411 -5.00485 22665 ft 436 kts 62°
2026-04-26 19:12 36.11804 -4.97141 23110 ft 439 kts 62°
2026-04-26 19:12 36.13201 -4.93778 23544 ft 442 kts 62°
2026-04-26 19:12 36.14692 -4.90454 23902 ft 443 kts 56°
2026-04-26 19:12 36.16568 -4.87404 24254 ft 445 kts 47°
2026-04-26 19:13 36.18703 -4.84635 24610 ft 446 kts 45°
2026-04-26 19:13 36.20852 -4.81876 24950 ft 448 kts 44°
2026-04-26 19:13 36.23028 -4.79074 25289 ft 450 kts 45°
2026-04-26 19:13 36.25200 -4.76270 25613 ft 452 kts 45°
2026-04-26 19:14 36.27350 -4.73486 25927 ft 454 kts 45°
2026-04-26 19:14 36.29539 -4.70648 26232 ft 456 kts 44°
2026-04-26 19:14 36.31736 -4.67802 26533 ft 458 kts 44°
2026-04-26 19:14 36.32484 -4.66832 26624 ft 459 kts 44°
2026-04-26 19:15 36.36167 -4.62058 27093 ft 462 kts 44°
2026-04-26 19:15 36.38391 -4.59175 27360 ft 464 kts 44°
2026-04-26 19:15 36.40629 -4.56268 27626 ft 466 kts 44°
2026-04-26 19:15 36.42864 -4.53362 27851 ft 468 kts 44°
2026-04-26 19:16 36.45118 -4.50428 28089 ft 469 kts 44°
2026-04-26 19:16 36.47375 -4.47488 28317 ft 470 kts 44°
2026-04-26 19:16 36.49596 -4.44597 28622 ft 469 kts 44°
2026-04-26 19:16 36.51843 -4.41671 28930 ft 468 kts 44°
2026-04-26 19:17 36.54092 -4.38736 29244 ft 468 kts 44°
2026-04-26 19:17 36.56335 -4.35801 29565 ft 467 kts 44°
2026-04-26 19:17 36.58571 -4.32871 29894 ft 466 kts 44°
2026-04-26 19:17 36.60802 -4.29946 30204 ft 466 kts 44°
2026-04-26 19:18 36.63030 -4.27021 30482 ft 465 kts 44°
2026-04-26 19:18 36.65254 -4.24102 30758 ft 464 kts 44°
2026-04-26 19:18 36.67446 -4.21226 31038 ft 464 kts 44°
2026-04-26 19:18 36.69658 -4.18318 31325 ft 463 kts 44°
2026-04-26 19:19 36.71876 -4.15400 31615 ft 462 kts 44°
2026-04-26 19:19 36.74081 -4.12496 31916 ft 461 kts 44°
2026-04-26 19:19 36.76277 -4.09603 32221 ft 459 kts 44°
2026-04-26 19:19 36.78469 -4.06713 32523 ft 458 kts 44°
2026-04-26 19:20 36.80660 -4.03825 32838 ft 457 kts 44°
2026-04-26 19:20 36.84986 -3.98109 33435 ft 455 kts 44°
2026-04-26 19:20 36.87151 -3.95237 33747 ft 454 kts 44°
2026-04-26 19:21 36.89312 -3.92371 34048 ft 453 kts 44°
2026-04-26 19:21 36.91467 -3.89511 34308 ft 452 kts 44°
2026-04-26 19:21 36.93626 -3.86646 34563 ft 452 kts 44°
2026-04-26 19:21 36.95776 -3.83788 34781 ft 452 kts 44°
2026-04-26 19:22 36.97928 -3.80929 35028 ft 452 kts 44°
2026-04-26 19:22 37.00081 -3.78068 35245 ft 452 kts 44°
2026-04-26 19:22 37.02240 -3.75197 35458 ft 452 kts 44°
2026-04-26 19:22 37.04395 -3.72332 35669 ft 453 kts 45°
2026-04-26 19:23 37.06524 -3.69493 35876 ft 453 kts 45°
2026-04-26 19:23 37.08702 -3.66577 36080 ft 453 kts 45°
2026-04-26 19:23 37.10831 -3.63726 36241 ft 454 kts 45°
2026-04-26 19:23 37.13004 -3.60849 36414 ft 455 kts 44°
2026-04-26 19:24 37.15196 -3.58001 36595 ft 455 kts 44°
2026-04-26 19:24 37.17411 -3.55156 36776 ft 455 kts 44°
2026-04-26 19:24 37.21841 -3.49489 37131 ft 455 kts 44°
2026-04-26 19:25 37.24051 -3.46648 37299 ft 455 kts 44°
2026-04-26 19:25 37.24764 -3.45729 37355 ft 455 kts 44°
2026-04-26 19:25 37.28431 -3.40980 37639 ft 455 kts 44°
2026-04-26 19:25 37.30638 -3.38114 37823 ft 456 kts 44°
2026-04-26 19:26 37.32835 -3.35258 37994 ft 455 kts 44°
2026-04-26 19:26 37.35036 -3.32390 38103 ft 456 kts 44°
2026-04-26 19:26 37.39445 -3.26650 38111 ft 456 kts 44°
2026-04-26 19:27 37.43849 -3.20916 38111 ft 456 kts 44°
2026-04-26 19:27 37.48223 -3.15217 38110 ft 456 kts 44°
2026-04-26 19:28 37.52612 -3.09467 38113 ft 455 kts 44°
2026-04-26 19:28 37.56999 -3.03701 38123 ft 455 kts 44°
2026-04-26 19:29 37.61388 -2.97941 38129 ft 456 kts 44°
2026-04-26 19:29 37.65782 -2.92161 38138 ft 456 kts 44°
2026-04-26 19:30 37.70132 -2.86423 38147 ft 456 kts 44°
2026-04-26 19:30 37.73062 -2.82548 38150 ft 456 kts 44°
2026-04-26 19:31 37.78889 -2.74839 38156 ft 456 kts 44°
2026-04-26 19:31 37.83270 -2.69048 38164 ft 455 kts 44°
2026-04-26 19:32 37.87614 -2.63297 38167 ft 455 kts 44°
2026-04-26 19:32 37.91247 -2.58467 38173 ft 455 kts 44°
2026-04-26 19:33 37.95598 -2.52655 38175 ft 455 kts 44°
2026-04-26 19:33 37.99955 -2.46842 38176 ft 455 kts 44°
2026-04-26 19:34 38.05019 -2.40082 38177 ft 454 kts 44°
2026-04-26 19:34 38.09360 -2.34266 38182 ft 455 kts 44°
2026-04-26 19:35 38.12971 -2.29410 38185 ft 454 kts 45°
2026-04-26 19:35 38.18041 -2.22579 38186 ft 454 kts 45°
2026-04-26 19:36 38.20891 -2.18692 38185 ft 455 kts 48°
2026-04-26 19:36 38.26128 -2.10292 38188 ft 455 kts 50°
2026-04-26 19:37 38.29391 -2.05029 38184 ft 455 kts 50°
2026-04-26 19:37 38.33307 -1.98687 38184 ft 455 kts 50°
2026-04-26 19:38 38.37215 -1.92333 38184 ft 455 kts 50°
2026-04-26 19:38 38.41099 -1.86026 38187 ft 456 kts 50°
2026-04-26 19:39 38.45010 -1.79670 38184 ft 456 kts 50°
2026-04-26 19:39 38.48918 -1.73299 38177 ft 456 kts 50°
2026-04-26 19:40 38.52821 -1.66911 38188 ft 456 kts 50°
2026-04-26 19:40 38.56711 -1.60531 38188 ft 456 kts 50°
2026-04-26 19:41 38.60612 -1.54139 38175 ft 456 kts 50°
2026-04-26 19:41 38.63851 -1.48822 38195 ft 456 kts 50°
2026-04-26 19:42 38.68374 -1.41370 38179 ft 456 kts 50°
2026-04-26 19:42 38.72260 -1.34945 38187 ft 456 kts 51°
2026-04-26 19:43 38.76118 -1.28562 38192 ft 456 kts 50°
2026-04-26 19:43 38.80002 -1.22135 38188 ft 456 kts 50°
2026-04-26 19:44 38.83885 -1.15706 38193 ft 456 kts 51°
2026-04-26 19:44 38.87762 -1.09265 38191 ft 456 kts 51°
2026-04-26 19:45 38.91633 -1.02812 38185 ft 456 kts 51°
2026-04-26 19:45 38.95470 -0.96395 38181 ft 456 kts 51°
2026-04-26 19:46 38.99328 -0.89934 38185 ft 456 kts 51°
2026-04-26 19:46 39.03191 -0.83476 38175 ft 456 kts 50°
2026-04-26 19:47 39.06868 -0.78667 38184 ft 453 kts 42°
2026-04-26 19:47 39.12190 -0.72096 38182 ft 453 kts 42°
2026-04-26 19:48 39.16708 -0.66510 38189 ft 453 kts 42°
2026-04-26 19:48 39.21262 -0.60870 38191 ft 453 kts 42°
2026-04-26 19:49 39.25808 -0.55240 38183 ft 453 kts 42°
2026-04-26 19:49 39.30319 -0.49632 38184 ft 453 kts 42°
2026-04-26 19:50 39.34854 -0.43979 38188 ft 453 kts 42°
2026-04-26 19:50 39.39387 -0.38334 38186 ft 453 kts 42°
2026-04-26 19:51 39.43923 -0.32671 38190 ft 453 kts 43°
2026-04-26 19:51 39.48445 -0.26998 38189 ft 453 kts 43°
2026-04-26 19:52 39.52938 -0.21362 38186 ft 453 kts 43°
2026-04-26 19:52 39.57458 -0.15683 38180 ft 453 kts 43°
2026-04-26 19:53 39.61973 -0.09994 38178 ft 453 kts 43°
2026-04-26 19:53 39.66484 -0.04293 38175 ft 452 kts 43°
2026-04-26 19:54 39.70963 0.01367 38171 ft 452 kts 43°
2026-04-26 19:54 39.75469 0.07065 38167 ft 452 kts 43°
2026-04-26 19:55 39.79973 0.12775 38169 ft 452 kts 43°
2026-04-26 19:55 39.84442 0.18461 38169 ft 452 kts 43°
2026-04-26 19:56 39.88933 0.24183 38171 ft 452 kts 43°
2026-04-26 19:56 39.93422 0.29913 38172 ft 452 kts 43°
2026-04-26 19:57 39.97903 0.35639 38180 ft 452 kts 43°
2026-04-26 19:57 40.02387 0.41379 38182 ft 451 kts 43°
2026-04-26 19:58 40.06834 0.47092 38182 ft 451 kts 43°
2026-04-26 19:58 40.11305 0.52843 38179 ft 451 kts 43°
2026-04-26 19:59 40.15774 0.58600 38181 ft 451 kts 43°
2026-04-26 19:59 40.20243 0.64375 38180 ft 451 kts 43°
2026-04-26 20:00 40.24696 0.70157 38179 ft 451 kts 43°
2026-04-26 20:00 40.29123 0.75897 38181 ft 451 kts 43°
2026-04-26 20:01 40.33583 0.81669 38183 ft 451 kts 43°
2026-04-26 20:01 40.38041 0.87461 38180 ft 451 kts 43°
2026-04-26 20:02 40.42497 0.93270 38186 ft 451 kts 43°
2026-04-26 20:02 40.46185 0.98092 38184 ft 451 kts 44°
2026-04-26 20:03 40.51350 1.04851 38185 ft 451 kts 44°
2026-04-26 20:03 40.55783 1.10681 38189 ft 451 kts 44°
2026-04-26 20:04 40.60219 1.16523 38182 ft 451 kts 44°
2026-04-26 20:04 40.64624 1.22321 38191 ft 451 kts 44°
2026-04-26 20:05 40.69062 1.28168 38188 ft 451 kts 44°
2026-04-26 20:05 40.73488 1.34021 38183 ft 451 kts 44°
2026-04-26 20:06 40.77918 1.39895 38186 ft 452 kts 44°
2026-04-26 20:06 40.82316 1.45735 38184 ft 452 kts 44°
2026-04-26 20:07 40.86747 1.51618 38182 ft 452 kts 44°
2026-04-26 20:07 40.91168 1.57524 38179 ft 451 kts 44°
2026-04-26 20:08 40.95578 1.63415 38177 ft 452 kts 44°
2026-04-26 20:08 41.00008 1.69327 38179 ft 452 kts 44°
2026-04-26 20:09 41.04396 1.75214 38180 ft 452 kts 44°
2026-04-26 20:09 41.08792 1.81133 38178 ft 452 kts 44°
2026-04-26 20:10 41.13224 1.87101 38177 ft 452 kts 44°
2026-04-26 20:10 41.17631 1.93052 38177 ft 453 kts 44°
2026-04-26 20:11 41.22010 1.98976 38181 ft 453 kts 44°
2026-04-26 20:12 41.28650 2.07974 38167 ft 458 kts 46°
2026-04-26 20:12 41.32214 2.15033 38167 ft 466 kts 64°
2026-04-26 20:13 41.34935 2.22899 38160 ft 469 kts 64°
2026-04-26 20:13 41.37663 2.30751 38166 ft 472 kts 64°
2026-04-26 20:14 41.40418 2.38686 38164 ft 472 kts 64°
2026-04-26 20:14 41.43154 2.46647 38166 ft 473 kts 64°
2026-04-26 20:15 41.45894 2.54626 38171 ft 473 kts 64°
2026-04-26 20:15 41.48639 2.62604 38172 ft 473 kts 64°
2026-04-26 20:16 41.51353 2.70522 38171 ft 473 kts 64°
2026-04-26 20:16 41.54070 2.78501 38156 ft 469 kts 64°
2026-04-26 20:17 41.56717 2.86309 38148 ft 457 kts 64°
2026-04-26 20:17 41.58006 2.90112 37633 ft 455 kts 64°
2026-04-26 20:17 41.59328 2.94009 36799 ft 455 kts 64°
2026-04-26 20:17 41.60193 2.96562 36236 ft 456 kts 64°
2026-04-26 20:18 41.61933 3.01695 35112 ft 459 kts 64°
2026-04-26 20:18 41.63250 3.05589 34253 ft 461 kts 64°
2026-04-26 20:18 41.64574 3.09510 33269 ft 463 kts 64°
2026-04-26 20:18 41.65894 3.13433 32252 ft 465 kts 64°
2026-04-26 20:19 41.67224 3.17396 31222 ft 468 kts 64°
2026-04-26 20:19 41.68573 3.21369 30176 ft 470 kts 62°
2026-04-26 20:19 41.70408 3.24925 28757 ft 461 kts 44°
2026-04-26 20:19 41.72901 3.27454 26938 ft 456 kts 26°
2026-04-26 20:20 41.75854 3.28989 24971 ft 456 kts 12°
2026-04-26 20:20 41.78990 3.29524 23164 ft 454 kts 359°
2026-04-26 20:20 41.82093 3.29091 21559 ft 444 kts 346°
2026-04-26 20:20 41.84966 3.27729 20093 ft 434 kts 333°
2026-04-26 20:21 41.87651 3.25931 18662 ft 428 kts 332°
2026-04-26 20:21 41.90281 3.24110 17181 ft 421 kts 331°
2026-04-26 20:21 41.92653 3.21809 16299 ft 420 kts 315°
2026-04-26 20:21 41.94537 3.18862 15596 ft 414 kts 307°
2026-04-26 20:22 41.96180 3.15764 14897 ft 410 kts 304°
2026-04-26 20:22 41.97764 3.12598 14200 ft 407 kts 304°
2026-04-26 20:22 41.99334 3.09460 13467 ft 403 kts 305°
2026-04-26 20:22 42.00920 3.06378 12713 ft 399 kts 306°
2026-04-26 20:23 42.02529 3.03366 11945 ft 394 kts 307°
2026-04-26 20:23 42.04164 3.00432 11207 ft 390 kts 308°
2026-04-26 20:23 42.05837 2.97572 10476 ft 386 kts 311°
2026-04-26 20:23 42.07768 2.95233 10303 ft 364 kts 328°
2026-04-26 20:24 42.09896 2.93570 10188 ft 345 kts 331°
2026-04-26 20:24 42.11911 2.92049 10066 ft 328 kts 331°
2026-04-26 20:24 42.13931 2.90827 9940 ft 312 kts 345°
2026-04-26 20:24 42.15968 2.90182 9739 ft 290 kts 348°
2026-04-26 20:25 42.17899 2.89625 9187 ft 281 kts 348°
2026-04-26 20:25 42.19168 2.89261 8925 ft 281 kts 348°
2026-04-26 20:25 42.21708 2.88532 8411 ft 277 kts 348°
2026-04-26 20:25 42.23590 2.87990 8004 ft 276 kts 348°
2026-04-26 20:26 42.25468 2.87468 7593 ft 274 kts 352°
2026-04-26 20:26 42.27341 2.87369 7190 ft 273 kts 360°
2026-04-26 20:26 42.29236 2.87341 6778 ft 272 kts 360°
2026-04-26 20:26 42.31116 2.87312 6370 ft 270 kts 360°
2026-04-26 20:27 42.32995 2.87283 6032 ft 267 kts 360°
2026-04-26 20:27 42.34856 2.87257 6003 ft 269 kts 360°
2026-04-26 20:27 42.36726 2.87234 6006 ft 270 kts 360°
2026-04-26 20:27 42.38604 2.87207 6004 ft 270 kts 359°
2026-04-26 20:28 42.40481 2.87178 6005 ft 270 kts 359°
2026-04-26 20:28 42.42354 2.87150 6006 ft 269 kts 360°
2026-04-26 20:28 42.44230 2.87123 6005 ft 269 kts 359°
2026-04-26 20:28 42.46095 2.87097 6004 ft 269 kts 360°
2026-04-26 20:29 42.47942 2.87074 6002 ft 268 kts
2026-04-26 20:29 42.49770 2.87459 6003 ft 268 kts 21°
2026-04-26 20:29 42.51350 2.88786 6009 ft 269 kts 39°
2026-04-26 20:29 42.52783 2.90421 6006 ft 269 kts 39°
2026-04-26 20:30 42.54202 2.92060 6004 ft 268 kts 40°
2026-04-26 20:30 42.55536 2.93823 6000 ft 269 kts 54°
2026-04-26 20:30 42.56218 2.96172 6004 ft 272 kts 82°
2026-04-26 20:30 42.56018 2.98670 6004 ft 261 kts 107°
2026-04-26 20:31 42.55402 3.00868 5997 ft 244 kts 111°
2026-04-26 20:31 42.54766 3.02918 6000 ft 228 kts 111°
2026-04-26 20:31 42.54151 3.04861 6001 ft 223 kts 111°
2026-04-26 20:31 42.53539 3.06794 6000 ft 223 kts 111°
2026-04-26 20:32 42.52925 3.08724 6000 ft 223 kts 111°
2026-04-26 20:32 42.52512 3.10718 5983 ft 218 kts 90°
2026-04-26 20:32 42.52776 3.12693 5688 ft 213 kts 62°
2026-04-26 20:32 42.53684 3.14230 5334 ft 209 kts 34°
2026-04-26 20:33 42.54994 3.15018 4996 ft 207 kts
2026-04-26 20:33 42.56403 3.14942 4665 ft 207 kts 346°
2026-04-26 20:33 42.57806 3.14507 4323 ft 207 kts 347°
2026-04-26 20:33 42.59211 3.14078 4045 ft 206 kts 346°
2026-04-26 20:34 42.60602 3.13654 3844 ft 202 kts 346°
2026-04-26 20:34 42.61935 3.13200 3714 ft 193 kts 337°
2026-04-26 20:34 42.63021 3.12221 3571 ft 186 kts 310°
2026-04-26 20:34 42.63594 3.10674 3342 ft 185 kts 280°
2026-04-26 20:35 42.63482 3.08947 3098 ft 187 kts 249°
2026-04-26 20:35 42.62890 3.07389 2996 ft 188 kts 244°
2026-04-26 20:35 42.62279 3.05820 2988 ft 189 kts 244°
2026-04-26 20:35 42.61668 3.04238 2999 ft 190 kts 245°
2026-04-26 20:36 42.61101 3.02620 2997 ft 189 kts 255°
2026-04-26 20:36 42.60919 3.00889 3016 ft 180 kts 275°
2026-04-26 20:36 42.61147 2.99310 2962 ft 164 kts 292°
2026-04-26 20:36 42.61689 2.98003 2824 ft 155 kts 309°
2026-04-26 20:37 42.62457 2.97015 2656 ft 150 kts 325°
2026-04-26 20:37 42.63321 2.96288 2481 ft 147 kts 327°
2026-04-26 20:37 42.64180 2.95571 2299 ft 143 kts 327°
2026-04-26 20:37 42.65016 2.94872 2117 ft 139 kts 327°
2026-04-26 20:38 42.65830 2.94192 1936 ft 136 kts 327°
2026-04-26 20:38 42.66624 2.93522 1742 ft 133 kts 326°
2026-04-26 20:38 42.67405 2.92855 1522 ft 132 kts 327°
2026-04-26 20:38 42.68191 2.92194 1307 ft 133 kts 326°
2026-04-26 20:39 42.68982 2.91548 1215 ft 131 kts 328°
2026-04-26 20:39 42.69767 2.90936 1163 ft 134 kts 329°
2026-04-26 20:39 42.70557 2.90280 897 ft 132 kts 325°
2026-04-26 20:39 42.71337 2.89602 705 ft 133 kts 325°
2026-04-26 20:40 42.72121 2.88933 530 ft 133 kts 326°
2026-04-26 20:40 42.72913 2.88278 352 ft 133 kts 326°
2026-04-26 20:40 42.73707 2.87619 165 ft 133 kts 325°
2026-04-26 20:40 42.74398 2.87021 144 ft 98 kts 330°
2026-04-26 20:41 42.74800 2.86681 140 ft 30 kts 331°
2026-04-26 20:41 42.74861 2.86635 141 ft 14 kts 330°
2026-04-26 20:41 42.74945 2.86558 141 ft 15 kts 316°
2026-04-26 20:41 42.74974 2.86425 141 ft 16 kts 273°
2026-04-26 20:42 42.74921 2.86338 141 ft 2 kts 154°
2026-04-26 20:42 42.74908 2.86345 141 ft 8 kts 158°
2026-04-26 20:42 42.74813 2.86409 141 ft 22 kts 147°
2026-04-26 20:43 42.74677 2.86525 141 ft 24 kts 149°
2026-04-26 20:43 42.74526 2.86652 142 ft 27 kts 147°
2026-04-26 20:43 42.74362 2.86788 143 ft 28 kts 150°
2026-04-26 20:43 42.74216 2.86927 143 ft 21 kts 125°
2026-04-26 20:44 42.74140 2.86998 144 ft 10 kts 147°
2026-04-26 20:44 42.74084 2.87047 144 ft 9 kts 147°
2026-04-26 20:44 42.74033 2.87090 144 ft 8 kts 149°
2026-04-26 20:44 42.73994 2.87075 145 ft 5 kts 225°
2026-04-26 20:45 42.73981 2.87052 145 ft 1 kts 232°
2026-04-26 20:45 42.73966 2.87001 147 ft 14 kts 264°
2026-04-26 20:45 42.73991 2.86962 147 ft 0 kts 345°
2026-04-26 20:45 42.74015 2.86952 147 ft 0 kts 352°